Location: Hertford
(51.8000°N, 0.0667°W)
Time: 05:17:42
(UTC+00:00)

SL-14 R/B - Pass Details

Date: 18 September 2020
Orbit: 518 x 554 km, 82.4° (Epoch: 20 October)

Event Time Altitude Azimuth Distance (km) Brightness Sun altitude
Rises 20:45:56 0° 347° (NNW) 2,671 7.6 -23.7°
Reaches altitude 10° 20:48:05 10° 346° (NNW) 1,782 6.6 -23.9°
Enters shadow 20:51:32 65° 318° (NW) 587 3.5 -24.4°
